[[{"header":{"parameterUnit":"m.s-1","parameterCategory":1,"la1":30.2991,"la2":30.254,"lo1":-89.0895,"lo2":-89.0444,"dy":0.0017,"dx":0.0017,"nx":28,"ny":28,"refTime":"2026-02-05T09:00:00:Z","depth":0,"parameterNumber":2,"parameterNumberName":"U-component_of_WINDS"},"data":[0,0,0,0,0,0,0,0,0,0,0,0,0,0,0,0,0,0,0,0,0,0,0,0,0,0,0,0,0,0,0,0,0,0,0,0,0,0,0,0,0,0,0,0,0,0,0,0,0,0,0,0,0,0,0,0,0,0,4.8667,4.8669,0,4.8857,4.886,4.8862,4.878,4.8775,4.877,4.8766,4.8966,4.8976,4.8985,0,0,0,0,0,0,0,0,0,0,0,0,0,4.8236,4.8244,4.8666,4.8669,4.8671,4.8857,4.886,4.8862,4.878,4.8775,4.8769,4.8764,4.8963,4.8974,4.8986,0,0,0,0,0,0,0,0,0,0,0,0,0,4.8425,4.8247,4.8666,4.8653,4.8653,4.8856,4.886,4.8863,4.8782,4.8775,4.8768,4.8761,4.8959,4.8973,4.8988,4.9217,0,0,4.9032,4.9038,0,0,0,0,0,0,0,0,4.8414,4.844,4.8652,4.8654,4.8655,4.8787,4.8781,4.8982,4.8783,4.8733,4.8766,4.8758,4.8913,4.8931,4.8982,4.9226,4.9235,4.9033,4.9042,4.9048,4.9052,0,0,0,0,0,0,0,4.8401,4.8432,4.8742,4.8655,4.8657,4.8639,4.8658,4.8819,4.886,4.8737,4.8731,4.8755,4.8912,4.8968,4.8986,4.9238,4.9033,4.9046,4.9055,4.906,4.968,4.9688,0,0,0,0,0,0,4.8387,4.8421,4.8736,4.8748,4.8515,4.8652,4.8673,4.8752,4.8858,4.8867,4.8761,4.875,4.8947,4.8969,4.8993,4.9268,4.9048,4.9062,4.907,4.9672,4.9682,4.969,0,0,0,0,0,0,4.8378,4.8416,4.8728,4.8583,4.8621,4.8667,4.8756,4.876,4.8815,4.8876,4.8883,4.881,4.8942,4.8972,4.9161,4.9274,4.9068,4.9081,4.9663,4.9675,4.9686,4.9821,0,0,0,0,0,0,4.8366,4.8413,4.85,4.8586,4.863,4.8893,4.8763,4.8768,4.884,4.8828,4.8924,4.8933,4.8939,4.914,4.9176,4.929,4.9093,4.9653,4.9669,4.9682,4.9807,4.9836,4.9861,0,0,0,0,0,4.8351,4.8531,4.8504,4.8543,4.8738,4.8899,4.8925,4.8926,4.8849,4.8937,4.8976,4.893,4.9256,4.916,4.92,4.932,4.9646,4.9664,4.9681,4.9795,4.983,4.986,0,0,0,0,0,0,4.8459,4.8542,4.8514,4.8726,4.8806,4.8885,4.8996,4.8964,4.9069,4.9054,4.9053,4.9075,4.9271,4.9314,4.9206,4.9548,4.944,4.9466,4.9512,4.9547,4.9573,4.9559,4.9105,0,0,0,0,0,4.8507,4.8629,4.8696,4.8878,4.8919,4.8951,4.9021,4.9016,4.9099,4.9133,4.9185,4.927,4.9391,4.9471,4.9586,4.9812,4.9833,4.9915,4.9942,4.9964,4.9987,5.0111,5.0148,4.9748,4.9747,4.9747,0,0,4.8609,4.8669,4.8747,4.8901,4.8962,4.909,4.898,4.912,4.9216,4.9155,4.9336,4.9378,4.9472,4.9681,4.9776,4.9723,5.0102,4.9986,5.0003,5.0014,5.0132,5.017,5.0204,4.9759,4.9757,4.9755,0,0,4.8859,4.8917,4.9074,4.9138,4.9231,4.9251,4.9289,4.9374,4.9398,4.958,4.9537,4.9651,4.986,4.9929,4.9991,5.0268,5.023,5.0306,5.0447,5.0568,5.06,5.0628,5.0727,5.0763,5.0328,5.0329,5.0329,0,4.8974,4.9164,4.916,4.9304,4.9373,4.9322,4.9483,4.9545,4.9672,4.9722,4.9661,4.9922,4.9982,5.0206,5.0274,5.0326,5.037,5.0295,5.0595,5.0623,5.0649,5.0744,5.0782,5.0337,5.0336,5.0335,5.0335,0,4.9301,4.9433,4.955,4.9672,4.9755,4.9907,4.9927,5.0011,4.9999,5.0026,5.0212,5.0282,5.041,5.0463,5.0452,5.0687,5.0651,5.0593,5.0484,5.0696,5.0785,5.0822,5.035,5.0347,5.0344,5.0342,0,0,4.9625,4.9743,4.9786,4.9841,4.994,5.0044,5.0194,5.0317,5.039,5.048,5.0607,5.0784,5.0731,5.0802,5.0799,5.0905,5.112,5.0833,5.0835,5.0885,5.1384,5.1428,5.147,5.1095,5.1102,5.1108,5.1376,0,4.9884,5.0144,5.0145,5.0387,5.051,5.0463,5.0593,5.067,5.0699,5.0809,5.0842,5.0968,5.0887,5.093,5.1033,5.1072,5.1221,5.1053,5.1215,5.122,5.1193,5.1516,5.1563,5.1813,5.1411,5.1417,5.1421,0,5.022,5.0319,5.0572,5.0654,5.0706,5.0823,5.0937,5.1042,5.1128,5.1142,5.1221,5.1202,5.1356,5.1242,5.1455,5.1341,5.1407,5.1437,5.1447,5.1462,5.1334,5.1542,5.1893,5.1931,5.1476,5.1472,5.1468,0,5.0433,5.0629,5.0806,5.0855,5.0954,5.1038,5.1083,5.1162,5.1237,5.1337,5.1385,5.1503,5.1567,5.1659,5.1673,5.1588,5.1888,5.1774,5.1905,5.1905,5.1971,5.1967,5.2339,5.2013,5.2012,5.2011,5.201,0,5.0722,5.0879,5.0903,5.1012,5.1186,5.1186,5.136,5.1399,5.1469,5.1586,5.1553,5.1664,5.1674,5.1789,5.1801,5.1976,5.2006,5.2022,5.2024,5.2026,5.2024,5.207,5.2053,5.2021,5.2019,5.2017,5.2015,0,5.0989,5.1011,5.1201,5.1279,5.1302,5.1428,5.1495,5.16,5.1626,5.1774,5.1809,5.185,5.1983,5.2006,5.2163,5.217,5.2381,5.2364,5.2351,5.235,5.2479,5.2467,5.2894,5.2951,5.2587,5.259,5.2593,0,5.1173,5.1292,5.1382,5.1457,5.1507,5.1628,5.1704,5.1709,5.1789,5.1896,5.1988,5.2117,5.2221,5.2436,5.2481,5.2602,5.2588,5.2729,5.2606,5.2604,5.2591,5.2584,5.2597,5.2754,5.2758,5.2761,5.2763,0,5.1496,5.1501,5.161,5.1724,5.1814,5.1905,5.199,5.2054,5.207,5.2162,5.2297,5.2377,5.2536,5.2666,5.2785,5.2834,5.2803,5.2802,5.2838,5.2842,5.283,5.2839,5.2417,5.2792,5.2789,5.2787,5.2786,5.2784,5.1728,5.1832,5.1912,5.2035,5.2099,5.2179,5.2281,5.2319,5.2431,5.256,5.2557,5.2705,5.2788,5.2945,5.3002,5.3119,5.3073,5.3126,5.314,5.3153,5.3166,5.2811,5.314,5.314,5.3139,5.3138,5.3138,0,5.2051,5.2099,5.2212,5.2331,5.2429,5.2388,5.248,5.2565,5.2695,5.2775,5.2877,5.3033,5.3158,5.3212,5.3336,5.3419,5.3408,5.3451,5.3446,5.3458,5.3199,5.3155,5.3458,5.3458,5.3458,5.3458,5.3458,5.3458,5.223,5.2404,5.2418,5.2624,5.2672,5.2816,5.2872,5.2946,5.301,5.3184,5.3287,5.3321,5.3391,5.352,5.3633,5.3646,5.3694,5.3744,5.3751,5.3508,5.3476,5.3445,5.3404,5.3754,5.3755,5.4,5.4002,5.4004]},{"header":{"parameterUnit":"m.s-1","parameterCategory":1,"la1":30.2991,"la2":30.254,"lo1":-89.0895,"lo2":-89.0444,"dy":0.0017,"dx":0.0017,"nx":28,"ny":28,"refTime":"2026-02-05T09:00:00:Z","depth":0,"parameterNumber":3,"parameterNumberName":"V-component_of_WINDS"},"data":[0,0,0,0,0,0,0,0,0,0,0,0,0,0,0,0,0,0,0,0,0,0,0,0,0,0,0,0,0,0,0,0,0,0,0,0,0,0,0,0,0,0,0,0,0,0,0,0,0,0,0,0,0,0,0,0,0,0,-0.3892,-0.3893,0,-0.4018,-0.402,-0.4021,-0.407,-0.407,-0.4069,-0.4069,-0.4202,-0.4205,-0.4209,0,0,0,0,0,0,0,0,0,0,0,0,0,-0.3696,-0.3699,-0.3891,-0.3893,-0.3895,-0.4018,-0.402,-0.4022,-0.407,-0.407,-0.4069,-0.4069,-0.42,-0.4205,-0.421,0,0,0,0,0,0,0,0,0,0,0,0,0,-0.3797,-0.37,-0.3891,-0.3934,-0.3939,-0.4018,-0.402,-0.4022,-0.407,-0.407,-0.4069,-0.4069,-0.4199,-0.4205,-0.421,-0.4257,0,0,-0.4228,-0.4231,0,0,0,0,0,0,0,0,-0.3792,-0.3805,-0.3926,-0.3931,-0.3937,-0.4028,-0.4,-0.4101,-0.407,-0.402,-0.4069,-0.4068,-0.4144,-0.4155,-0.418,-0.4264,-0.4269,-0.4229,-0.4232,-0.4235,-0.4236,0,0,0,0,0,0,0,-0.3784,-0.3799,-0.3942,-0.3928,-0.3934,-0.3948,-0.3962,-0.4019,-0.4084,-0.4025,-0.4028,-0.4043,-0.4147,-0.4174,-0.4183,-0.4271,-0.4228,-0.4234,-0.4237,-0.4239,-0.4403,-0.4404,0,0,0,0,0,0,-0.377,-0.3793,-0.3938,-0.3946,-0.3861,-0.3952,-0.3967,-0.3999,-0.4084,-0.4096,-0.4043,-0.4044,-0.4164,-0.4176,-0.4188,-0.425,-0.4235,-0.424,-0.4243,-0.4402,-0.4403,-0.4404,0,0,0,0,0,0,-0.3765,-0.3782,-0.3933,-0.387,-0.3891,-0.3956,-0.3991,-0.4002,-0.4029,-0.4097,-0.411,-0.4058,-0.4164,-0.418,-0.424,-0.4256,-0.4243,-0.4248,-0.4401,-0.4402,-0.4403,-0.4374,0,0,0,0,0,0,-0.376,-0.378,-0.3798,-0.387,-0.3894,-0.3981,-0.3992,-0.4005,-0.4038,-0.4041,-0.4115,-0.4126,-0.4165,-0.4231,-0.4246,-0.4263,-0.4252,-0.44,-0.4402,-0.4403,-0.4374,-0.4374,-0.4374,0,0,0,0,0,-0.3752,-0.3784,-0.3798,-0.3815,-0.3917,-0.3982,-0.3995,-0.4038,-0.4039,-0.4058,-0.4103,-0.4124,-0.4251,-0.4237,-0.4254,-0.4273,-0.4399,-0.4401,-0.4403,-0.4374,-0.4374,-0.4374,0,0,0,0,0,0,-0.3712,-0.3795,-0.3811,-0.3867,-0.3917,-0.399,-0.4015,-0.4037,-0.4088,-0.4089,-0.4141,-0.4158,-0.4214,-0.425,-0.4232,-0.4325,-0.4327,-0.4332,-0.4299,-0.43,-0.43,-0.429,-0.4257,0,0,0,0,0,-0.371,-0.3754,-0.3825,-0.3868,-0.3892,-0.3949,-0.3979,-0.4008,-0.4062,-0.4083,-0.4132,-0.4185,-0.4237,-0.4271,-0.4322,-0.4379,-0.4397,-0.4401,-0.4401,-0.4401,-0.4405,-0.444,-0.4443,-0.441,-0.441,-0.441,0,0,-0.3705,-0.3756,-0.3781,-0.3861,-0.3903,-0.395,-0.3966,-0.4014,-0.405,-0.4091,-0.4151,-0.4189,-0.4252,-0.4311,-0.4339,-0.4342,-0.4419,-0.4404,-0.4403,-0.4407,-0.4443,-0.4446,-0.4448,-0.4411,-0.4411,-0.4411,0,0,-0.3721,-0.3763,-0.3805,-0.3847,-0.391,-0.3948,-0.3958,-0.4028,-0.4055,-0.4115,-0.4148,-0.4192,-0.428,-0.4324,-0.4357,-0.4392,-0.4415,-0.4408,-0.4409,-0.4442,-0.4445,-0.4448,-0.4461,-0.4465,-0.4412,-0.4412,-0.4412,0,-0.3708,-0.3778,-0.3823,-0.387,-0.3905,-0.3944,-0.3987,-0.4026,-0.4104,-0.4128,-0.413,-0.4243,-0.4288,-0.4359,-0.4367,-0.4393,-0.4407,-0.44,-0.4441,-0.4444,-0.4447,-0.4461,-0.4466,-0.4411,-0.4411,-0.4411,-0.4411,0,-0.376,-0.3808,-0.3834,-0.3907,-0.3945,-0.399,-0.4043,-0.4077,-0.4103,-0.4142,-0.4204,-0.426,-0.4324,-0.4343,-0.4369,-0.4419,-0.4419,-0.443,-0.4434,-0.4448,-0.4462,-0.4468,-0.4409,-0.4409,-0.441,-0.441,0,0,-0.3753,-0.3851,-0.386,-0.3894,-0.3968,-0.4007,-0.4055,-0.4117,-0.4146,-0.4199,-0.4241,-0.4316,-0.4327,-0.4366,-0.4398,-0.4427,-0.4453,-0.4435,-0.4437,-0.4437,-0.4513,-0.4504,-0.4509,-0.4468,-0.4469,-0.447,-0.4508,0,-0.3779,-0.3864,-0.3907,-0.3975,-0.4021,-0.406,-0.4102,-0.4153,-0.4191,-0.4237,-0.4279,-0.4332,-0.4342,-0.4366,-0.4397,-0.4443,-0.4469,-0.4441,-0.451,-0.4512,-0.4493,-0.4516,-0.4507,-0.4539,-0.4513,-0.4514,-0.4515,0,-0.382,-0.3872,-0.3944,-0.4015,-0.4036,-0.4072,-0.4134,-0.4177,-0.4237,-0.4262,-0.4306,-0.4337,-0.4391,-0.4391,-0.4467,-0.4447,-0.4478,-0.4505,-0.4508,-0.4516,-0.4514,-0.4526,-0.4551,-0.4556,-0.4524,-0.4523,-0.4523,0,-0.3809,-0.3897,-0.3952,-0.3981,-0.4063,-0.4089,-0.4125,-0.4183,-0.4219,-0.4273,-0.4297,-0.4358,-0.4391,-0.4438,-0.4486,-0.4481,-0.4558,-0.4561,-0.4582,-0.4581,-0.4596,-0.4595,-0.4627,-0.4615,-0.4615,-0.4615,-0.4615,0,-0.3834,-0.3877,-0.3949,-0.3982,-0.4033,-0.4082,-0.4131,-0.417,-0.4222,-0.4266,-0.4304,-0.4344,-0.4404,-0.4453,-0.4491,-0.4549,-0.4564,-0.4587,-0.4597,-0.4584,-0.4581,-0.4605,-0.4605,-0.4616,-0.4616,-0.4616,-0.4615,0,-0.383,-0.3879,-0.3942,-0.4016,-0.4035,-0.4069,-0.4133,-0.4168,-0.4209,-0.4263,-0.4279,-0.4343,-0.4402,-0.4455,-0.4533,-0.4559,-0.4619,-0.463,-0.4598,-0.4604,-0.4622,-0.462,-0.4671,-0.4681,-0.4662,-0.4662,-0.4662,0,-0.3843,-0.3877,-0.3954,-0.3985,-0.4021,-0.4071,-0.4107,-0.4158,-0.4195,-0.4267,-0.4294,-0.4356,-0.4408,-0.4502,-0.4556,-0.4617,-0.4631,-0.4645,-0.464,-0.4627,-0.4633,-0.463,-0.4635,-0.4645,-0.4645,-0.4645,-0.4645,0,-0.3861,-0.3884,-0.3934,-0.3994,-0.4036,-0.4086,-0.4137,-0.4161,-0.4222,-0.4262,-0.4323,-0.4363,-0.4444,-0.4506,-0.4573,-0.4613,-0.464,-0.4646,-0.4654,-0.4641,-0.4622,-0.4634,-0.4599,-0.4644,-0.4644,-0.4644,-0.4644,-0.4644,-0.3866,-0.3899,-0.3959,-0.4014,-0.4058,-0.4105,-0.4143,-0.4188,-0.4239,-0.4308,-0.4336,-0.4398,-0.4459,-0.4552,-0.4592,-0.4643,-0.4647,-0.4659,-0.4662,-0.4664,-0.4663,-0.4613,-0.4655,-0.4655,-0.4655,-0.4655,-0.4655,0,-0.3887,-0.3928,-0.3978,-0.4049,-0.4093,-0.4113,-0.4172,-0.4208,-0.4262,-0.4316,-0.4367,-0.4438,-0.4499,-0.4558,-0.4623,-0.4652,-0.4667,-0.4668,-0.4666,-0.4675,-0.4654,-0.4641,-0.4655,-0.4655,-0.4655,-0.4655,-0.4655,-0.4655,-0.3903,-0.396,-0.399,-0.407,-0.4111,-0.4172,-0.4204,-0.4248,-0.4292,-0.4369,-0.4419,-0.4458,-0.4515,-0.4584,-0.4642,-0.4658,-0.468,-0.4678,-0.4698,-0.4677,-0.4676,-0.4676,-0.4664,-0.4682,-0.4682,-0.4715,-0.4715,-0.4715]}]]